Regional Weather Roundup
Issued by NWS

Home | Current Version | Previous Version | Graphics & Text | Print | Product List | Glossary On
Versions: 1 2 3 4 5 6 7 8 9 10 11 12 13 14 15 16 17 18 19 20 21 22 23 24 25 26 27 28 29 30 31 32 33 34 35 36 37 38 39 40 41 42 43 44 45 46 47 48 49 50
000
ASUS43 KOAX 240910
RWRNE

WEATHER ROUNDUP FOR NEBRASKA
NATIONAL WEATHER SERVICE OMAHA NE
400 AM CDT THU MAY 24 2018

NOTES: SATELLITE DATA IS BEING USED TO AUGMENT CLOUD COVER ABOVE
       12000 FEET.
       "FAIR" INDICATES FEW OR NO CLOUDS BELOW 12,000 FEET WITH NO
       SIGNIFICANT WEATHER AND/OR OBSTRUCTIONS TO VISIBILITY.


NEZ001>004-019>022-054>056-241000-
NEBRASKA PANHANDLE

CITY           SKY/WX    TMP DP  RH WIND       PRES   REMARKS
SCOTTSBLUFF    CLEAR     50  49  96 NW7       30.02S
ALLIANCE       CLEAR     51  51 100 S3        29.98S
CHADRON        CLEAR     52  50  93 SW10      29.97S
GORDON         FAIR      56  52  86 CALM      29.98R
KIMBALL        CLEAR     50  47  90 CALM      30.04S
SIDNEY         PTCLDY    53  52  96 NW3       30.00F
$$

NEZ057>060-069>072-079>082-241000-
SOUTHWEST NEBRASKA

CITY           SKY/WX    TMP DP  RH WIND       PRES   REMARKS
NORTH PLATTE   CLOUDY    67  59  75 E7        29.99R
IMPERIAL       CLOUDY    63  58  83 S7        29.95S
LEXINGTON      MOCLDY    66  59  77 S9        29.99R
MCCOOK         CLOUDY    66  57  72 S8        29.97S
OGALLALA       CLOUDY    66  61  84 E6        29.95S
$$

NEZ005>010-023>029-035>040-094-241000-
NORTH CENTRAL NEBRASKA

CITY           SKY/WX    TMP DP  RH WIND       PRES   REMARKS
VALENTINE      CLOUDY    62  57  83 SE9       29.96R
AINSWORTH      CLOUDY    61  58  88 SE10      30.00F
BROKEN BOW     CLOUDY    65  58  78 N16G25    30.03R
O`NEILL        CLOUDY    67  60  77 W9        30.04R
ORD            CLOUDY    65  63  93 NW10      30.02R
THEDFORD       CLOUDY    59  57  91 SE6       30.00F
$$

NEZ041-046>049-061>064-073>077-083>087-241000-
SOUTH CENTRAL NEBRASKA

CITY           SKY/WX    TMP DP  RH WIND       PRES   REMARKS
GRAND ISLAND   CLOUDY    69  64  84 S12       30.00F
AURORA         CLOUDY    69  64  85 S10       30.01S
HASTINGS       CLOUDY    69  64  84 S8        30.01F
HEBRON         MOCLDY    70  63  77 S7        30.03R
HOLDREGE       PTCLDY    64  59  85 S9        29.99F
YORK           CLOUDY    70  68  94 S10       30.01F
$$

NEZ011>018-030>034-042>045-241000-
NORTHEAST NEBRASKA

CITY           SKY/WX    TMP DP  RH WIND       PRES   REMARKS
NORFOLK        MOCLDY    72  64  76 S14       29.99S
ALBION         CLOUDY    68  64  88 SE5       30.01R
BLAIR          PTCLDY    73  65  76 SE7       30.04S
COLUMBUS       CLOUDY    72  64  76 SE12      30.01S
FREMONT        MOCLDY    73  64  75 SE9       30.03S
TEKAMAH        PTCLDY    68  63  84 SE10      30.02R
WAYNE          CLOUDY    69  68  96 S10       30.01R
$$

NEZ050>053-065>068-078-088>093-241000-
SOUTHEAST NEBRASKA

CITY           SKY/WX    TMP DP  RH WIND       PRES   REMARKS
LINCOLN        CLOUDY    71  65  81 S9        30.03S
OMAHA EPPLEY   PTCLDY    71  64  78 SE9       30.04R
BEATRICE       CLOUDY    71  65  80 S7        30.03S
FALLS CITY     CLOUDY    70  65  84 S8        30.05S
NEBRASKA CITY  MOCLDY    70  69  97 S8        30.06R
PLATTSMOUTH    PTCLDY    70  65  83 SE8       30.05S
$$

NEZ044-045-051>053-067-241000-
OMAHA AREA

CITY           SKY/WX    TMP DP  RH WIND       PRES   REMARKS
OMAHA EPPLEY   PTCLDY    71  64  78 SE9       30.04R
BLAIR          PTCLDY    73  65  76 SE7       30.04S
FREMONT        MOCLDY    73  64  75 SE9       30.03S
MILLARD        CLOUDY    72  65  81 SE3       30.04R
OFFUTT AFB     CLOUDY    69  64  85 E7        30.04R
PLATTSMOUTH    PTCLDY    70  65  83 SE8       30.05S
WAHOO          FAIR      68  63  82 SE8       30.02F
$$




USA.gov is the U.S. government's official web portal to all federal, state and local government web resources and services.